User: anonymous   Login
Location: Unspecified
(0.0000°N, 0.0000°E)
Time: 11:14:49
(UTC+00:00)
Language:

NNS O-2 - Orbit

View from above orbital plane
View from above orbital plane
View from above satellite
View from above satellite

Ground track
Ground track

The orbit data is extracted from the following two-line orbital elements,

1   965U 64083D   18267.33725556 +.00000007 +00000-0 -29843-5 0  9990
2   965 090.0185 192.3741 0038504 249.7714 223.9308 13.56720684660939
Epoch (UTC): 24 September 2018 08:05:38
Eccentricity: 0.0038504
inclination: 90.0185°
perigee height: 1019 km
apogee height: 1076 km
right ascension of ascending node: 192.3741°
argument of perigee: 249.7714°
revolutions per day: 13.56720684
mean anomaly at epoch: 223.9308°
orbit number at epoch: 66093

The dashed part of the orbit path shows where the satellite is in the earth's shadow,  

DLR